Time,TemperatureF,DewpointF,PressureIn,WindDirection,WindDirectionDegrees,WindSpeedMPH,WindSpeedGustMPH,Humidity,HourlyPrecipIn,Conditions,Clouds,dailyrainin,SoftwareType,DateUTC
2013-02-23 00:03:00,37.0,37.0,-100.00,SSW,210,5.0,12.0,99,-99.99,,,-99.99,,2013-02-23 05:03:00,
2013-02-23 00:12:00,38.0,37.0,-100.00,SW,225,4.0,14.0,98,-99.99,,,-99.99,,2013-02-23 05:12:00,
2013-02-23 00:22:00,37.0,37.0,-100.00,SW,235,4.0,9.0,98,-99.99,,,-99.99,,2013-02-23 05:22:00,
2013-02-23 00:33:00,37.0,37.0,-100.00,SW,235,7.0,11.0,98,-99.99,,,-99.99,,2013-02-23 05:33:00,
2013-02-23 00:42:00,37.0,37.0,-100.00,SW,230,7.0,10.0,98,-99.99,,,-99.99,,2013-02-23 05:42:00,
2013-02-23 00:52:00,37.0,37.0,-100.00,SW,235,4.0,11.0,98,-99.99,,,-99.99,,2013-02-23 05:52:00,
2013-02-23 01:02:00,37.0,37.0,-100.00,SW,215,4.0,9.0,98,-99.99,,,-99.99,,2013-02-23 06:02:00,
2013-02-23 01:11:00,37.0,37.0,-100.00,WSW,245,4.0,6.0,98,-99.99,,,-99.99,,2013-02-23 06:11:00,
2013-02-23 01:22:00,37.0,36.0,-100.00,SW,225,4.0,6.0,98,-99.99,,,-99.99,,2013-02-23 06:22:00,
2013-02-23 01:32:00,36.0,36.0,-100.00,South,175,1.0,6.0,98,-99.99,,,-99.99,,2013-02-23 06:32:00,
2013-02-23 01:42:00,37.0,36.0,-100.00,SSW,205,4.0,6.0,98,-99.99,,,-99.99,,2013-02-23 06:42:00,
2013-02-23 01:51:00,36.0,36.0,-100.00,SW,230,2.0,6.0,98,-99.99,,,-99.99,,2013-02-23 06:51:00,
2013-02-23 02:01:00,36.0,36.0,-100.00,WSW,245,3.0,7.0,98,-99.99,,,-99.99,,2013-02-23 07:01:00,
2013-02-23 02:11:00,36.0,36.0,-100.00,SW,215,2.0,6.0,99,-99.99,,,-99.99,,2013-02-23 07:11:00,
2013-02-23 02:21:00,36.0,35.0,-100.00,SSW,210,3.0,9.0,98,-99.99,,,-99.99,,2013-02-23 07:21:00,
2013-02-23 02:32:00,36.0,35.0,-100.00,South,190,3.0,6.0,98,-99.99,,,-99.99,,2013-02-23 07:32:00,
2013-02-23 02:42:00,36.0,35.0,-100.00,SSW,195,2.0,6.0,98,-99.99,,,-99.99,,2013-02-23 07:42:00,
2013-02-23 02:51:00,36.0,35.0,-100.00,South,180,2.0,5.0,98,-99.99,,,-99.99,,2013-02-23 07:51:00,
2013-02-23 03:01:00,36.0,35.0,-100.00,SSE,150,2.0,9.0,98,-99.99,,,-99.99,,2013-02-23 08:01:00,
2013-02-23 03:11:00,36.0,35.0,-100.00,South,185,2.0,7.0,98,-99.99,,,-99.99,,2013-02-23 08:11:00,
2013-02-23 03:21:00,36.0,35.0,-100.00,SSW,195,3.0,5.0,98,-99.99,,,-99.99,,2013-02-23 08:21:00,
2013-02-23 03:32:00,36.0,35.0,-100.00,SSE,160,1.0,7.0,98,-99.99,,,-99.99,,2013-02-23 08:32:00,
2013-02-23 03:42:00,36.0,35.0,-100.00,South,170,2.0,6.0,98,-99.99,,,-99.99,,2013-02-23 08:42:00,
2013-02-23 03:52:00,35.0,35.0,-100.00,South,185,2.0,7.0,98,-99.99,,,-99.99,,2013-02-23 08:52:00,
2013-02-23 04:02:00,35.0,35.0,-100.00,South,180,4.0,9.0,98,-99.99,,,-99.99,,2013-02-23 09:02:00,
2013-02-23 04:11:00,35.0,35.0,-100.00,SSE,165,2.0,6.0,98,-99.99,,,-99.99,,2013-02-23 09:11:00,
2013-02-23 04:32:00,35.0,35.0,-100.00,South,170,2.0,5.0,98,-99.99,,,-99.99,,2013-02-23 09:32:00,
2013-02-23 04:51:00,35.0,35.0,-100.00,SSE,165,2.0,6.0,98,-99.99,,,-99.99,,2013-02-23 09:51:00,
2013-02-23 05:01:00,35.0,35.0,-100.00,SSE,165,4.0,7.0,98,-99.99,,,-99.99,,2013-02-23 10:01:00,
2013-02-23 05:11:00,35.0,35.0,-100.00,South,175,2.0,6.0,98,-99.99,,,-99.99,,2013-02-23 10:11:00,
2013-02-23 05:21:00,36.0,35.0,-100.00,SSE,165,3.0,10.0,98,-99.99,,,-99.99,,2013-02-23 10:21:00,
2013-02-23 05:32:00,36.0,35.0,-100.00,SSW,205,2.0,7.0,98,-99.99,,,-99.99,,2013-02-23 10:32:00,
2013-02-23 05:42:00,36.0,35.0,-100.00,SW,230,2.0,7.0,98,-99.99,,,-99.99,,2013-02-23 10:42:00,
2013-02-23 05:51:00,36.0,35.0,-100.00,South,170,3.0,6.0,98,-99.99,,,-99.99,,2013-02-23 10:51:00,
2013-02-23 06:02:00,36.0,35.0,-100.00,South,170,4.0,11.0,98,-99.99,,,-99.99,,2013-02-23 11:02:00,
2013-02-23 06:11:00,36.0,35.0,-100.00,SSW,210,4.0,11.0,98,-99.99,,,-99.99,,2013-02-23 11:11:00,
2013-02-23 06:22:00,36.0,36.0,-100.00,SW,215,4.0,9.0,98,-99.99,,,-99.99,,2013-02-23 11:22:00,
2013-02-23 06:32:00,36.0,36.0,-100.00,SSW,195,4.0,9.0,98,-99.99,,,-99.99,,2013-02-23 11:32:00,
2013-02-23 06:42:00,36.0,36.0,-100.00,SW,215,2.0,12.0,98,-99.99,,,-99.99,,2013-02-23 11:42:00,
2013-02-23 06:52:00,36.0,36.0,-100.00,SSW,200,4.0,9.0,98,-99.99,,,-99.99,,2013-02-23 11:52:00,
2013-02-23 07:02:00,36.0,36.0,-100.00,SW,235,4.0,12.0,98,-99.99,,,-99.99,,2013-02-23 12:02:00,
2013-02-23 07:11:00,36.0,36.0,-100.00,SW,235,4.0,10.0,98,-99.99,,,-99.99,,2013-02-23 12:11:00,
2013-02-23 07:21:00,36.0,36.0,-100.00,WSW,240,4.0,9.0,98,-99.99,,,-99.99,,2013-02-23 12:21:00,
2013-02-23 07:32:00,36.0,36.0,-100.00,SSW,210,4.0,9.0,98,-99.99,,,-99.99,,2013-02-23 12:32:00,
2013-02-23 07:42:00,36.0,36.0,-100.00,WSW,240,6.0,11.0,98,-99.99,,,-99.99,,2013-02-23 12:42:00,
2013-02-23 07:52:00,36.0,36.0,-100.00,SW,235,9.0,15.0,98,-99.99,,,-99.99,,2013-02-23 12:52:00,
2013-02-23 08:01:00,36.0,36.0,-100.00,WSW,250,6.0,15.0,98,-99.99,,,-99.99,,2013-02-23 13:01:00,
2013-02-23 08:11:00,36.0,36.0,-100.00,SW,225,7.0,14.0,98,-99.99,,,-99.99,,2013-02-23 13:11:00,
2013-02-23 08:22:00,36.0,36.0,-100.00,SW,235,8.0,17.0,98,-99.99,,,-99.99,,2013-02-23 13:22:00,
2013-02-23 08:32:00,35.0,35.0,-100.00,NW,310,4.0,14.0,98,-99.99,,,-99.99,,2013-02-23 13:32:00,
2013-02-23 08:42:00,34.0,34.0,-100.00,West,265,6.0,12.0,99,-99.99,,,-99.99,,2013-02-23 13:42:00,
2013-02-23 08:52:00,34.0,33.0,-100.00,West,270,6.0,13.0,99,-99.99,,,-99.99,,2013-02-23 13:52:00,
2013-02-23 09:02:00,33.0,33.0,-100.00,West,270,4.0,11.0,99,-99.99,,,-99.99,,2013-02-23 14:02:00,
2013-02-23 09:11:00,33.0,33.0,-100.00,WSW,245,5.0,12.0,99,-99.99,,,-99.99,,2013-02-23 14:11:00,
2013-02-23 09:21:00,33.0,33.0,-100.00,West,280,4.0,11.0,99,-99.99,,,-99.99,,2013-02-23 14:21:00,
2013-02-23 09:32:00,33.0,33.0,-100.00,WSW,245,6.0,11.0,99,-99.99,,,-99.99,,2013-02-23 14:32:00,
2013-02-23 09:42:00,33.0,33.0,-100.00,West,265,3.0,14.0,99,-99.99,,,-99.99,,2013-02-23 14:42:00,
2013-02-23 09:52:00,33.0,33.0,-100.00,WSW,255,6.0,11.0,99,-99.99,,,-99.99,,2013-02-23 14:52:00,
2013-02-23 10:02:00,33.0,33.0,-100.00,WSW,255,2.0,9.0,99,-99.99,,,-99.99,,2013-02-23 15:02:00,
2013-02-23 10:11:00,32.0,32.0,-100.00,WSW,245,6.0,11.0,99,-99.99,,,-99.99,,2013-02-23 15:11:00,
2013-02-23 10:22:00,32.0,32.0,-100.00,West,260,4.0,11.0,99,-99.99,,,-99.99,,2013-02-23 15:22:00,
2013-02-23 10:32:00,32.0,32.0,-100.00,WSW,240,6.0,11.0,99,-99.99,,,-99.99,,2013-02-23 15:32:00,
2013-02-23 10:42:00,32.0,32.0,-100.00,WSW,250,8.0,14.0,99,-99.99,,,-99.99,,2013-02-23 15:42:00,
2013-02-23 10:51:00,32.0,32.0,-100.00,West,260,4.0,12.0,99,-99.99,,,-99.99,,2013-02-23 15:51:00,
2013-02-23 11:01:00,31.0,31.0,-100.00,WSW,255,4.0,15.0,99,-99.99,,,-99.99,,2013-02-23 16:01:00,
2013-02-23 11:11:00,31.0,31.0,-100.00,WSW,245,9.0,18.0,99,-99.99,,,-99.99,,2013-02-23 16:11:00,
2013-02-23 11:21:00,30.0,30.0,-100.00,WSW,255,7.0,14.0,99,-99.99,,,-99.99,,2013-02-23 16:21:00,
2013-02-23 11:32:00,30.0,30.0,-100.00,WSW,245,9.0,16.0,99,-99.99,,,-99.99,,2013-02-23 16:32:00,
2013-02-23 11:42:00,31.0,30.0,-100.00,West,265,7.0,14.0,98,-99.99,,,-99.99,,2013-02-23 16:42:00,
2013-02-23 11:51:00,31.0,30.0,-100.00,WSW,250,7.0,13.0,98,-99.99,,,-99.99,,2013-02-23 16:51:00,
2013-02-23 12:01:00,31.0,30.0,-100.00,WSW,245,7.0,17.0,98,-99.99,,,-99.99,,2013-02-23 17:01:00,
2013-02-23 12:11:00,31.0,30.0,-100.00,WSW,245,12.0,16.0,97,-99.99,,,-99.99,,2013-02-23 17:11:00,
2013-02-23 12:21:00,31.0,30.0,-100.00,West,260,5.0,19.0,97,-99.99,,,-99.99,,2013-02-23 17:21:00,
2013-02-23 12:32:00,32.0,31.0,-100.00,WSW,245,4.0,9.0,96,-99.99,,,-99.99,,2013-02-23 17:32:00,
2013-02-23 12:42:00,31.0,30.0,-100.00,West,270,8.0,14.0,94,-99.99,,,-99.99,,2013-02-23 17:42:00,
2013-02-23 12:52:00,31.0,30.0,-100.00,WSW,255,9.0,17.0,93,-99.99,,,-99.99,,2013-02-23 17:52:00,
2013-02-23 13:02:00,32.0,30.0,-100.00,WSW,255,9.0,17.0,91,-99.99,,,-99.99,,2013-02-23 18:02:00,
2013-02-23 13:12:00,33.0,31.0,-100.00,SW,235,4.0,15.0,91,-99.99,,,-99.99,,2013-02-23 18:12:00,
2013-02-23 13:22:00,33.0,31.0,-100.00,West,260,5.0,12.0,90,-99.99,,,-99.99,,2013-02-23 18:22:00,
2013-02-23 13:32:00,33.0,31.0,-100.00,NNW,335,4.0,11.0,90,-99.99,,,-99.99,,2013-02-23 18:32:00,
2013-02-23 13:42:00,35.0,31.0,-100.00,West,280,5.0,13.0,88,-99.99,,,-99.99,,2013-02-23 18:42:00,
2013-02-23 13:52:00,33.0,31.0,-100.00,WSW,245,9.0,16.0,89,-99.99,,,-99.99,,2013-02-23 18:52:00,
2013-02-23 14:01:00,35.0,32.0,-100.00,West,280,3.0,11.0,86,-99.99,,,-99.99,,2013-02-23 19:01:00,
2013-02-23 14:11:00,35.0,31.0,-100.00,West,260,4.0,9.0,86,-99.99,,,-99.99,,2013-02-23 19:11:00,
2013-02-23 14:21:00,34.0,31.0,-100.00,WSW,255,6.0,12.0,88,-99.99,,,-99.99,,2013-02-23 19:21:00,
2013-02-23 14:32:00,35.0,31.0,-100.00,WSW,240,2.0,9.0,87,-99.99,,,-99.99,,2013-02-23 19:32:00,
2013-02-23 14:41:00,35.0,32.0,-100.00,SE,125,1.0,10.0,87,-99.99,,,-99.99,,2013-02-23 19:41:00,
2013-02-23 14:52:00,34.0,31.0,-100.00,WNW,295,2.0,9.0,87,-99.99,,,-99.99,,2013-02-23 19:52:00,
2013-02-23 15:01:00,34.0,31.0,-100.00,NW,315,2.0,9.0,88,-99.99,,,-99.99,,2013-02-23 20:01:00,
2013-02-23 15:11:00,34.0,31.0,-100.00,West,270,3.0,11.0,89,-99.99,,,-99.99,,2013-02-23 20:11:00,
2013-02-23 15:21:00,33.0,31.0,-100.00,SW,235,3.0,9.0,89,-99.99,,,-99.99,,2013-02-23 20:21:00,
2013-02-23 15:32:00,33.0,30.0,-100.00,WSW,240,4.0,9.0,89,-99.99,,,-99.99,,2013-02-23 20:32:00,
2013-02-23 15:42:00,33.0,31.0,-100.00,West,280,3.0,10.0,90,-99.99,,,-99.99,,2013-02-23 20:42:00,
2013-02-23 15:52:00,33.0,30.0,-100.00,WNW,290,2.0,9.0,89,-99.99,,,-99.99,,2013-02-23 20:52:00,
2013-02-23 16:02:00,33.0,31.0,-100.00,North,355,1.0,10.0,90,-99.99,,,-99.99,,2013-02-23 21:02:00,
2013-02-23 16:11:00,33.0,30.0,-100.00,WNW,285,3.0,8.0,90,-99.99,,,-99.99,,2013-02-23 21:11:00,
2013-02-23 16:22:00,33.0,30.0,-100.00,WSW,255,4.0,9.0,91,-99.99,,,-99.99,,2013-02-23 21:22:00,
2013-02-23 16:32:00,33.0,31.0,-100.00,NE,45,1.0,7.0,91,-99.99,,,-99.99,,2013-02-23 21:32:00,
2013-02-23 16:42:00,32.0,30.0,-100.00,WSW,245,2.0,7.0,91,-99.99,,,-99.99,,2013-02-23 21:42:00,
2013-02-23 16:51:00,33.0,30.0,-100.00,NW,315,2.0,7.0,91,-99.99,,,-99.99,,2013-02-23 21:51:00,
2013-02-23 17:02:00,32.0,30.0,-100.00,NNW,335,2.0,6.0,92,-99.99,,,-99.99,,2013-02-23 22:02:00,
2013-02-23 17:11:00,31.0,30.0,-100.00,WSW,245,2.0,7.0,93,-99.99,,,-99.99,,2013-02-23 22:11:00,
2013-02-23 17:22:00,31.0,30.0,-100.00,West,265,3.0,6.0,94,-99.99,,,-99.99,,2013-02-23 22:22:00,
2013-02-23 17:32:00,31.0,30.0,-100.00,WNW,300,4.0,9.0,94,-99.99,,,-99.99,,2013-02-23 22:32:00,
2013-02-23 17:42:00,31.0,30.0,-100.00,SSW,210,1.0,6.0,94,-99.99,,,-99.99,,2013-02-23 22:42:00,
2013-02-23 17:51:00,31.0,30.0,-100.00,West,265,3.0,7.0,94,-99.99,,,-99.99,,2013-02-23 22:51:00,
2013-02-23 18:01:00,31.0,30.0,-100.00,SW,230,1.0,7.0,95,-99.99,,,-99.99,,2013-02-23 23:01:00,
2013-02-23 18:11:00,31.0,30.0,-100.00,West,270,4.0,7.0,95,-99.99,,,-99.99,,2013-02-23 23:11:00,
2013-02-23 18:21:00,31.0,30.0,-100.00,NW,310,1.0,6.0,95,-99.99,,,-99.99,,2013-02-23 23:21:00,
2013-02-23 18:32:00,31.0,30.0,-100.00,WNW,285,2.0,9.0,96,-99.99,,,-99.99,,2013-02-23 23:32:00,
2013-02-23 18:42:00,31.0,30.0,-100.00,WSW,245,2.0,7.0,96,-99.99,,,-99.99,,2013-02-23 23:42:00,
2013-02-23 18:52:00,31.0,30.0,-100.00,NNE,30,1.0,7.0,96,-99.99,,,-99.99,,2013-02-23 23:52:00,
2013-02-23 19:01:00,31.0,30.0,-100.00,East,85,1.0,4.0,96,-99.99,,,-99.99,,2013-02-24 00:01:00,
2013-02-23 19:11:00,30.0,30.0,-100.00,SW,230,1.0,6.0,96,-99.99,,,-99.99,,2013-02-24 00:11:00,
2013-02-23 19:22:00,31.0,30.0,-100.00,NNW,340,1.0,6.0,96,-99.99,,,-99.99,,2013-02-24 00:22:00,
2013-02-23 19:32:00,31.0,30.0,-100.00,SSW,195,2.0,6.0,96,-99.99,,,-99.99,,2013-02-24 00:32:00,
2013-02-23 19:42:00,30.0,30.0,-100.00,WNW,285,1.0,9.0,96,-99.99,,,-99.99,,2013-02-24 00:42:00,
2013-02-23 19:52:00,30.0,30.0,-100.00,WSW,250,2.0,7.0,96,-99.99,,,-99.99,,2013-02-24 00:52:00,
2013-02-23 20:01:00,30.0,30.0,-100.00,WNW,285,2.0,6.0,96,-99.99,,,-99.99,,2013-02-24 01:01:00,
2013-02-23 20:11:00,30.0,30.0,-100.00,West,280,2.0,6.0,96,-99.99,,,-99.99,,2013-02-24 01:11:00,
2013-02-23 20:22:00,30.0,30.0,-100.00,NNW,330,1.0,6.0,97,-99.99,,,-99.99,,2013-02-24 01:22:00,
2013-02-23 20:32:00,30.0,30.0,-100.00,WNW,295,3.0,6.0,97,-99.99,,,-99.99,,2013-02-24 01:32:00,
2013-02-23 20:42:00,30.0,30.0,-100.00,North,0,2.0,6.0,97,-99.99,,,-99.99,,2013-02-24 01:42:00,
2013-02-23 20:51:00,30.0,29.0,-100.00,West,270,4.0,6.0,97,-99.99,,,-99.99,,2013-02-24 01:51:00,
2013-02-23 21:01:00,30.0,29.0,-100.00,West,280,1.0,4.0,97,-99.99,,,-99.99,,2013-02-24 02:01:00,
2013-02-23 21:11:00,30.0,29.0,-100.00,SW,215,2.0,5.0,97,-99.99,,,-99.99,,2013-02-24 02:11:00,
2013-02-23 21:21:00,30.0,29.0,-100.00,West,280,2.0,6.0,97,-99.99,,,-99.99,,2013-02-24 02:21:00,
2013-02-23 21:32:00,30.0,29.0,-100.00,West,260,1.0,5.0,97,-99.99,,,-99.99,,2013-02-24 02:32:00,
2013-02-23 21:42:00,30.0,29.0,-100.00,WSW,250,4.0,9.0,97,-99.99,,,-99.99,,2013-02-24 02:42:00,
2013-02-23 21:52:00,30.0,29.0,-100.00,NNW,345,2.0,6.0,97,-99.99,,,-99.99,,2013-02-24 02:52:00,
2013-02-23 22:02:00,30.0,29.0,-100.00,SW,225,2.0,4.0,97,-99.99,,,-99.99,,2013-02-24 03:02:00,
2013-02-23 22:11:00,30.0,29.0,-100.00,WNW,290,1.0,3.0,97,-99.99,,,-99.99,,2013-02-24 03:11:00,
2013-02-23 22:22:00,30.0,29.0,-100.00,West,275,0.0,3.0,97,-99.99,,,-99.99,,2013-02-24 03:22:00,
2013-02-23 22:32:00,30.0,29.0,-100.00,NW,305,3.0,8.0,97,-99.99,,,-99.99,,2013-02-24 03:32:00,
2013-02-23 22:42:00,30.0,29.0,-100.00,WSW,250,6.0,7.0,97,-99.99,,,-99.99,,2013-02-24 03:42:00,
2013-02-23 22:52:00,30.0,29.0,-100.00,WSW,245,2.0,6.0,97,-99.99,,,-99.99,,2013-02-24 03:52:00,
2013-02-23 23:02:00,30.0,29.0,-100.00,WSW,255,5.0,7.0,97,-99.99,,,-99.99,,2013-02-24 04:02:00,
2013-02-23 23:11:00,29.0,29.0,-100.00,NW,305,2.0,8.0,97,-99.99,,,-99.99,,2013-02-24 04:11:00,
2013-02-23 23:21:00,29.0,29.0,-100.00,WNW,295,3.0,9.0,97,-99.99,,,-99.99,,2013-02-24 04:21:00,
2013-02-23 23:32:00,29.0,29.0,-100.00,West,275,2.0,7.0,97,-99.99,,,-99.99,,2013-02-24 04:32:00,
2013-02-23 23:42:00,29.0,29.0,-100.00,WSW,245,4.0,8.0,97,-99.99,,,-99.99,,2013-02-24 04:42:00,
2013-02-23 23:52:00,29.0,29.0,-100.00,WSW,245,4.0,7.0,97,-99.99,,,-99.99,,2013-02-24 04:52:00,